User: anonymous   Login
Location: Unspecified
(0.0000°N, 0.0000°E)
Time: 10:35:31
(UTC+00:00)
Language:

USA 198 - Orbit

View from above orbital plane
View from above orbital plane
View from above satellite
View from above satellite

Ground track
Ground track

The orbit data is extracted from the following two-line orbital elements,

1 32378U 07060A   18220.54925176 0.00000000  00000-0  00000-0 0    01
2 32378  62.7169 158.7431 7055467 265.7533  18.0372  2.00614000    04
Epoch (UTC): 08 August 2018 13:10:55
Eccentricity: 0.7055467
inclination: 62.7169°
perigee height: 1441 km
apogee height: 38914 km
right ascension of ascending node: 158.7431°
argument of perigee: 265.7533°
revolutions per day: 2.00614000
mean anomaly at epoch: 18.0372°
orbit number at epoch: 0

The dashed part of the orbit path shows where the satellite is in the earth's shadow,  

DLR